| time (UTC) | temp F | wind direction | speed knots | gust knots | rain 1hr in | rain 24hr in | rain mn in | humidity % | barometer mb |
| 20260509130752 | 48 | 269 | 0.0 | 0.9 | 0.00 | 0.00 | 0.00 | 61 | 1032.0 |
| 20260509130253 | 48 | 234 | 0.0 | 3.5 | 0.00 | 0.00 | 0.00 | 61 | 1032.0 |
| 20260509125752 | 48 | 344 | 0.0 | 3.5 | 0.00 | 0.00 | 0.00 | 60 | 1032.0 |
| 20260509125253 | 48 | 272 | 0.0 | 5.2 | 0.00 | 0.00 | 0.00 | 60 | 1032.2 |
| 20260509125013 | 48 | 271 | 0.9 | 5.2 | 0.00 | 0.00 | 0.00 | 61 | 1032.0 |
| 20260509124252 | 47 | 281 | 0.9 | 2.6 | 0.00 | 0.00 | 0.00 | 63 | 1032.2 |
| 20260509123749 | 46 | 276 | 1.7 | 2.6 | 0.00 | 0.00 | 0.00 | 64 | 1032.2 |
| 20260509123508 | 46 | 266 | 0.0 | 2.6 | 0.00 | 0.00 | 0.00 | 62 | 1032.2 |
| 20260509123008 | 47 | 259 | 0.9 | 1.7 | 0.00 | 0.00 | 0.00 | 61 | 1032.3 |
| 20260509122252 | 47 | 255 | 0.0 | 0.9 | 0.00 | 0.00 | 0.00 | 60 | 1032.2 |
| 20260509121753 | 48 | 103 | 0.0 | 0.9 | 0.00 | 0.00 | 0.00 | 59 | 1032.3 |
| 20260509121252 | 48 | 103 | 0.0 | 0.9 | 0.00 | 0.00 | 0.00 | 59 | 1032.3 |
| 20260509120751 | 48 | 130 | 0.0 | 0.9 | 0.00 | 0.00 | 0.00 | 58 | 1032.3 |
| 20260509120252 | 49 | 104 | 0.0 | 0.9 | 0.00 | 0.00 | 0.00 | 57 | 1032.3 |
| 20260509115751 | 49 | 94 | 0.0 | 4.3 | 0.00 | 0.00 | 0.00 | 55 | 1032.3 |
| 20260509115252 | 49 | 144 | 0.9 | 4.3 | 0.00 | 0.00 | 0.00 | 55 | 1032.3 |
| 20260509114750 | 51 | 63 | 0.9 | 2.6 | 0.00 | 0.00 | 0.00 | 53 | 1032.4 |
| 20260509114249 | 52 | 244 | 0.0 | 2.6 | 0.00 | 0.00 | 0.00 | 51 | 1032.3 |
| 20260509113750 | 52 | 307 | 0.0 | 3.5 | 0.00 | 0.00 | 0.00 | 51 | 1032.3 |
| 20260509113252 | 53 | 282 | 0.0 | 5.2 | 0.00 | 0.00 | 0.00 | 51 | 1032.3 |
| 20260509112251 | 53 | 299 | 2.6 | 5.2 | 0.00 | 0.00 | 0.00 | 50 | 1032.3 |
| 20260509111750 | 53 | 326 | 0.9 | 6.1 | 0.00 | 0.00 | 0.00 | 50 | 1032.2 |
| 20260509111250 | 53 | 281 | 1.7 | 6.1 | 0.00 | 0.00 | 0.00 | 50 | 1032.2 |
| 20260509110747 | 53 | 266 | 2.6 | 10.4 | 0.00 | 0.00 | 0.00 | 49 | 1032.2 |
| 20260509110246 | 54 | 288 | 4.3 | 10.4 | 0.00 | 0.00 | 0.00 | 48 | 1032.3 |
| 20260509105748 | 54 | 265 | 4.3 | 10.4 | 0.00 | 0.00 | 0.00 | 49 | 1032.3 |
| 20260509105249 | 53 | 234 | 5.2 | 8.7 | 0.00 | 0.00 | 0.00 | 49 | 1032.3 |
| 20260509104751 | 53 | 298 | 4.3 | 7.8 | 0.00 | 0.00 | 0.00 | 50 | 1032.3 |
| 20260509104521 | 53 | 274 | 3.5 | 7.8 | 0.00 | 0.00 | 0.00 | 50 | 1032.4 |
| 20260509103749 | 53 | 288 | 3.5 | 7.8 | 0.00 | 0.00 | 0.00 | 50 | 1032.4 |
| 20260509103249 | 53 | 289 | 2.6 | 4.3 | 0.00 | 0.00 | 0.00 | 51 | 1032.3 |
| 20260509102745 | 53 | 269 | 1.7 | 5.2 | 0.00 | 0.00 | 0.00 | 50 | 1032.3 |
| 20260509102246 | 53 | 262 | 2.6 | 5.2 | 0.00 | 0.00 | 0.00 | 50 | 1032.2 |
| 20260509101745 | 53 | 283 | 2.6 | 4.3 | 0.00 | 0.00 | 0.00 | 50 | 1032.2 |
| 20260509101247 | 53 | 274 | 0.9 | 3.5 | 0.00 | 0.00 | 0.00 | 50 | 1032.2 |
| 20260509100749 | 54 | 295 | 0.9 | 4.3 | 0.00 | 0.00 | 0.00 | 48 | 1031.9 |
| 20260509100249 | 54 | 288 | 2.6 | 4.3 | 0.00 | 0.00 | 0.00 | 48 | 1032.0 |
| 20260509095748 | 54 | 266 | 0.9 | 4.3 | 0.00 | 0.00 | 0.00 | 48 | 1031.9 |
| 20260509095248 | 54 | 278 | 0.9 | 4.3 | 0.00 | 0.00 | 0.00 | 47 | 1032.0 |
| 20260509094745 | 55 | 293 | 0.0 | 7.8 | 0.00 | 0.00 | 0.00 | 47 | 1031.9 |
| 20260509094244 | 55 | 266 | 3.5 | 10.4 | 0.00 | 0.00 | 0.00 | 46 | 1031.8 |
| 20260509093746 | 55 | 269 | 2.6 | 10.4 | 0.00 | 0.00 | 0.00 | 46 | 1031.7 |
| 20260509093513 | 55 | 268 | 2.6 | 7.8 | 0.00 | 0.00 | 0.00 | 46 | 1031.8 |
| 20260509092746 | 55 | 295 | 5.2 | 11.3 | 0.00 | 0.00 | 0.00 | 45 | 1031.7 |
| 20260509092248 | 55 | 283 | 5.2 | 11.3 | 0.00 | 0.00 | 0.00 | 46 | 1031.6 |
| 20260509092012 | 55 | 278 | 4.3 | 11.3 | 0.00 | 0.00 | 0.00 | 46 | 1031.5 |
| 20260509091247 | 56 | 300 | 5.2 | 13.0 | 0.00 | 0.00 | 0.00 | 45 | 1031.4 |
| 20260509090747 | 56 | 279 | 7.0 | 13.0 | 0.00 | 0.00 | 0.00 | 46 | 1031.5 |
| 20260509090247 | 56 | 282 | 6.1 | 11.3 | 0.00 | 0.00 | 0.00 | 46 | 1031.5 |
| 20260509085747 | 56 | 282 | 5.2 | 8.7 | 0.00 | 0.00 | 0.00 | 46 | 1031.5 |
| 20260509085247 | 56 | 302 | 5.2 | 11.3 | 0.00 | 0.00 | 0.00 | 46 | 1031.5 |
| 20260509084746 | 56 | 272 | 5.2 | 11.3 | 0.00 | 0.00 | 0.00 | 46 | 1031.5 |
| 20260509084247 | 55 | 285 | 4.3 | 8.7 | 0.00 | 0.00 | 0.00 | 46 | 1031.5 |
| 20260509083747 | 56 | 259 | 5.2 | 10.4 | 0.00 | 0.00 | 0.00 | 46 | 1031.5 |
| 20260509083512 | 56 | 274 | 6.1 | 10.4 | 0.00 | 0.00 | 0.00 | 46 | 1031.4 |
| 20260509082746 | 56 | 295 | 5.2 | 9.6 | 0.00 | 0.00 | 0.00 | 46 | 1031.4 |
| 20260509082246 | 56 | 276 | 4.3 | 9.6 | 0.00 | 0.00 | 0.00 | 46 | 1031.3 |
| 20260509082008 | 55 | 282 | 3.5 | 8.7 | 0.00 | 0.00 | 0.00 | 46 | 1031.3 |
| 20260509081246 | 55 | 276 | 3.5 | 7.8 | 0.00 | 0.00 | 0.00 | 47 | 1031.3 |
| 20260509080747 | 55 | 289 | 2.6 | 7.8 | 0.00 | 0.00 | 0.00 | 47 | 1031.2 |
| 20260509080246 | 56 | 241 | 2.6 | 6.1 | 0.00 | 0.00 | 0.00 | 46 | 1031.2 |
| 20260509075747 | 56 | 262 | 3.5 | 8.7 | 0.00 | 0.00 | 0.00 | 46 | 1031.1 |
| 20260509075245 | 56 | 283 | 2.6 | 10.4 | 0.00 | 0.00 | 0.00 | 46 | 1031.2 |
| 20260509074745 | 56 | 24 | 3.5 | 10.4 | 0.00 | 0.00 | 0.00 | 46 | 1031.1 |
| 20260509074246 | 56 | 288 | 6.1 | 10.4 | 0.00 | 0.00 | 0.00 | 46 | 1031.1 |
| 20260509073745 | 56 | 269 | 3.5 | 10.4 | 0.00 | 0.00 | 0.00 | 46 | 1031.0 |
| 20260509073246 | 56 | 285 | 2.6 | 9.6 | 0.00 | 0.00 | 0.00 | 46 | 1030.9 |
| 20260509072745 | 56 | 274 | 4.3 | 9.6 | 0.00 | 0.00 | 0.00 | 46 | 1030.9 |
| 20260509072513 | 56 | 279 | 3.5 | 8.7 | 0.00 | 0.00 | 0.00 | 46 | 1030.8 |
| 20260509071745 | 56 | 266 | 4.3 | 7.8 | 0.00 | 0.00 | 0.00 | 46 | 1030.8 |
| 20260509071246 | 56 | 281 | 4.3 | 8.7 | 0.00 | 0.00 | 0.00 | 46 | 1030.7 |
| 20260509070745 | 56 | 285 | 3.5 | 8.7 | 0.00 | 0.00 | 0.00 | 46 | 1030.7 |
| 20260509070244 | 56 | 299 | 3.5 | 8.7 | 0.00 | 0.00 | 0.00 | 46 | 1030.7 |
| 20260509065744 | 56 | 268 | 3.5 | 8.7 | 0.00 | 0.00 | 0.00 | 46 | 1030.7 |
| 20260509065244 | 56 | 278 | 3.5 | 7.8 | 0.00 | 0.00 | 0.00 | 46 | 1030.7 |
| 20260509064745 | 56 | 282 | 3.5 | 7.8 | 0.00 | 0.00 | 0.00 | 45 | 1030.7 |
| 20260509064245 | 56 | 275 | 3.5 | 6.1 | 0.00 | 0.00 | 0.00 | 45 | 1030.7 |
| 20260509063742 | 56 | 257 | 2.6 | 6.1 | 0.00 | 0.00 | 0.00 | 45 | 1030.6 |
| 20260509063241 | 55 | 299 | 3.5 | 6.1 | 0.00 | 0.00 | 0.00 | 46 | 1030.6 |
| 20260509062743 | 55 | 292 | 2.6 | 5.2 | 0.00 | 0.00 | 0.00 | 46 | 1030.7 |
| 20260509062506 | 55 | 248 | 3.5 | 5.2 | 0.00 | 0.00 | 0.00 | 45 | 1030.6 |
| 20260509061744 | 56 | 255 | 1.7 | 6.1 | 0.00 | 0.00 | 0.00 | 45 | 1030.6 |
| 20260509061244 | 56 | 283 | 2.6 | 8.7 | 0.00 | 0.00 | 0.00 | 45 | 1030.4 |
| 20260509060750 | 56 | 279 | 2.6 | 8.7 | 0.00 | 0.00 | 0.00 | 45 | 1030.6 |
| 20260509060743 | 56 | 264 | 2.6 | 8.7 | 0.00 | 0.00 | 0.00 | 45 | 1030.4 |
| 20260509055742 | 56 | 271 | 0.9 | 3.5 | 0.00 | 0.00 | 0.00 | 45 | 1030.4 |
| 20260509055244 | 56 | 274 | 1.7 | 7.8 | 0.00 | 0.00 | 0.00 | 44 | 1030.6 |
| 20260509054742 | 56 | 285 | 0.9 | 7.8 | 0.00 | 0.00 | 0.00 | 43 | 1030.4 |
| 20260509054242 | 56 | 268 | 2.6 | 6.1 | 0.00 | 0.00 | 0.00 | 44 | 1030.4 |
| 20260509053742 | 56 | 283 | 2.6 | 5.2 | 0.00 | 0.00 | 0.00 | 43 | 1030.4 |
| 20260509053242 | 56 | 238 | 2.6 | 5.2 | 0.00 | 0.00 | 0.00 | 44 | 1030.4 |
| 20260509052742 | 56 | 275 | 1.7 | 4.3 | 0.00 | 0.00 | 0.00 | 43 | 1030.4 |
| 20260509052242 | 56 | 254 | 0.9 | 5.2 | 0.00 | 0.00 | 0.00 | 43 | 1030.3 |
| 20260509051743 | 56 | 268 | 2.6 | 5.2 | 0.00 | 0.00 | 0.00 | 43 | 1030.3 |
| 20260509051242 | 56 | 265 | 1.7 | 4.3 | 0.00 | 0.00 | 0.00 | 43 | 1030.2 |
| 20260509050743 | 56 | 252 | 0.9 | 2.6 | 0.00 | 0.00 | 0.00 | 42 | 1030.3 |
| 20260509050241 | 56 | 259 | 0.9 | 8.7 | 0.00 | 0.00 | 0.00 | 41 | 1030.2 |
| 20260509045742 | 57 | 266 | 3.5 | 8.7 | 0.00 | 0.00 | 0.00 | 41 | 1030.2 |
| 20260509045241 | 56 | 266 | 1.7 | 4.3 | 0.00 | 0.00 | 0.00 | 42 | 1030.1 |
| 20260509044742 | 56 | 262 | 0.0 | 4.3 | 0.00 | 0.00 | 0.00 | 41 | 1030.1 |
| 20260509044732 | 56 | 276 | 0.9 | 4.3 | 0.00 | 0.00 | 0.00 | 41 | 1030.0 |
| 20260509043741 | 56 | 245 | 0.9 | 2.6 | 0.00 | 0.00 | 0.00 | 41 | 1030.0 |
| 20260509043242 | 56 | 245 | 0.9 | 4.3 | 0.00 | 0.00 | 0.00 | 40 | 1029.9 |
| 20260509043000 | 57 | 278 | 0.9 | 5.2 | 0.00 | 0.00 | 0.00 | 40 | 1029.9 |
| 20260509042242 | 57 | 283 | 1.7 | 5.2 | 0.00 | 0.00 | 0.00 | 39 | 1029.8 |
| 20260509041740 | 57 | 271 | 0.9 | 3.5 | 0.00 | 0.00 | 0.00 | 39 | 1029.7 |
| 20260509041240 | 58 | 282 | 0.0 | 5.2 | 0.00 | 0.00 | 0.00 | 38 | 1029.6 |
| 20260509040740 | 58 | 283 | 0.9 | 5.2 | 0.00 | 0.00 | 0.00 | 38 | 1029.6 |
| 20260509040505 | 58 | 283 | 1.7 | 5.2 | 0.00 | 0.00 | 0.00 | 37 | 1029.6 |
| 20260509040012 | 58 | 326 | 0.9 | 4.3 | 0.00 | 0.00 | 0.00 | 37 | 1029.5 |
| 20260509035500 | 58 | 266 | 2.6 | 3.5 | 0.00 | 0.00 | 0.00 | 37 | 1029.5 |
| 20260509034742 | 58 | 271 | 1.7 | 5.2 | 0.00 | 0.00 | 0.00 | 36 | 1029.4 |
| 20260509034247 | 59 | 288 | 0.9 | 6.1 | 0.00 | 0.00 | 0.00 | 35 | 1029.3 |
| 20260509034240 | 59 | 272 | 0.0 | 5.2 | 0.00 | 0.00 | 0.00 | 35 | 1029.3 |
| 20260509033502 | 59 | 278 | 3.5 | 6.1 | 0.00 | 0.00 | 0.00 | 35 | 1029.1 |
| 20260509033228 | 59 | 290 | 3.5 | 5.2 | 0.00 | 0.00 | 0.00 | 34 | 1028.9 |
| 20260509032502 | 60 | 250 | 1.7 | 4.3 | 0.00 | 0.00 | 0.00 | 34 | 1028.7 |
| 20260509032003 | 60 | 303 | 0.9 | 12.2 | 0.00 | 0.00 | 0.00 | 34 | 1028.6 |
| 20260509031240 | 60 | 295 | 4.3 | 12.2 | 0.00 | 0.00 | 0.00 | 33 | 1028.5 |
| 20260509030739 | 60 | 281 | 2.6 | 8.7 | 0.00 | 0.00 | 0.00 | 33 | 1028.4 |
| 20260509030456 | 61 | 281 | 1.7 | 9.6 | 0.00 | 0.00 | 0.00 | 32 | 1028.4 |
| 20260509025738 | 61 | 289 | 1.7 | 9.6 | 0.00 | 0.00 | 0.00 | 32 | 1028.3 |
| 20260509025241 | 61 | 272 | 1.7 | 4.3 | 0.00 | 0.00 | 0.00 | 32 | 1028.2 |
| 20260509024739 | 62 | 274 | 1.7 | 4.3 | 0.00 | 0.00 | 0.00 | 31 | 1028.1 |
| 20260509024239 | 63 | 6 | 0.9 | 5.2 | 0.00 | 0.00 | 0.00 | 30 | 1028.0 |
| 20260509023739 | 64 | 276 | 1.7 | 5.2 | 0.00 | 0.00 | 0.00 | 29 | 1028.0 |
| 20260509023504 | 65 | 274 | 0.0 | 2.6 | 0.00 | 0.00 | 0.00 | 28 | 1027.9 |
| 20260509023001 | 65 | 276 | 0.9 | 3.5 | 0.00 | 0.00 | 0.00 | 27 | 1027.9 |
| 20260509022239 | 66 | 10 | 0.9 | 6.1 | 0.00 | 0.00 | 0.00 | 27 | 1027.8 |
| 20260509021739 | 66 | 279 | 1.7 | 6.1 | 0.00 | 0.00 | 0.00 | 27 | 1027.8 |
| 20260509021238 | 66 | 274 | 0.9 | 6.1 | 0.00 | 0.00 | 0.00 | 26 | 1027.6 |
| 20260509020739 | 66 | 3 | 0.9 | 10.4 | 0.00 | 0.00 | 0.00 | 26 | 1027.5 |
| 20260509020237 | 67 | 31 | 3.5 | 10.4 | 0.00 | 0.00 | 0.00 | 25 | 1027.5 |
| 20260509015737 | 67 | 186 | 1.7 | 6.1 | 0.00 | 0.00 | 0.00 | 26 | 1027.5 |
| 20260509015237 | 68 | 344 | 1.7 | 10.4 | 0.00 | 0.00 | 0.00 | 25 | 1027.3 |
| 20260509014737 | 68 | 0 | 0.9 | 10.4 | 0.00 | 0.00 | 0.00 | 26 | 1027.2 |
| 20260509014237 | 68 | 327 | 2.6 | 8.7 | 0.00 | 0.00 | 0.00 | 25 | 1027.1 |
| 20260509013737 | 68 | 309 | 3.5 | 8.7 | 0.00 | 0.00 | 0.00 | 25 | 1027.1 |
| 20260509013456 | 69 | 324 | 2.6 | 10.4 | 0.00 | 0.00 | 0.00 | 26 | 1026.9 |
| 20260509012737 | 69 | 353 | 4.3 | 10.4 | 0.00 | 0.00 | 0.00 | 26 | 1026.9 |
| 20260509012240 | 69 | 285 | 1.7 | 5.2 | 0.00 | 0.00 | 0.00 | 26 | 1026.9 |
| 20260509011736 | 69 | 285 | 0.9 | 4.3 | 0.00 | 0.00 | 0.00 | 26 | 1026.9 |
| 20260509011236 | 69 | 300 | 1.7 | 7.8 | 0.00 | 0.00 | 0.00 | 26 | 1026.9 |
| 20260509010736 | 69 | 278 | 0.9 | 7.8 | 0.00 | 0.00 | 0.00 | 27 | 1026.8 |
| 20260509010236 | 67 | 259 | 0.9 | 5.2 | 0.00 | 0.00 | 0.00 | 27 | 1026.9 |
| 20260509005737 | 67 | 338 | 0.9 | 3.5 | 0.00 | 0.00 | 0.00 | 27 | 1026.8 |
| 20260509005455 | 67 | 45 | 0.9 | 7.8 | 0.00 | 0.00 | 0.00 | 28 | 1026.8 |
| 20260509004958 | 67 | 3 | 1.7 | 7.8 | 0.00 | 0.00 | 0.00 | 27 | 1026.9 |
| 20260509004236 | 67 | 281 | 0.0 | 7.8 | 0.00 | 0.00 | 0.00 | 27 | 1026.9 |
| 20260509003737 | 67 | 216 | 0.0 | 7.8 | 0.00 | 0.00 | 0.00 | 27 | 1026.7 |
| 20260509003236 | 67 | 42 | 2.6 | 6.1 | 0.00 | 0.00 | 0.00 | 27 | 1026.7 |
| 20260509002735 | 67 | 286 | 1.7 | 4.3 | 0.00 | 0.00 | 0.00 | 26 | 1026.8 |
| 20260509002236 | 67 | 248 | 1.7 | 4.3 | 0.00 | 0.00 | 0.00 | 26 | 1026.7 |
| 20260509001735 | 67 | 289 | 0.9 | 4.3 | 0.00 | 0.00 | 0.00 | 26 | 1026.8 |
| 20260509001236 | 68 | 302 | 0.9 | 6.1 | 0.00 | 0.00 | 0.00 | 27 | 1026.7 |
| 20260509000738 | 68 | 272 | 0.9 | 6.1 | 0.00 | 0.00 | 0.00 | 25 | 1026.8 |
| 20260509000728 | 68 | 264 | 0.0 | 4.3 | 0.00 | 0.00 | 0.00 | 25 | 1026.7 |
| 20260508235735 | 68 | 281 | 0.9 | 4.3 | 0.00 | 0.00 | 0.00 | 26 | 1026.8 |
| 20260508235236 | 68 | 48 | 0.9 | 3.5 | 0.00 | 0.00 | 0.00 | 26 | 1026.8 |
| 20260508234735 | 68 | 289 | 0.9 | 7.8 | 0.00 | 0.00 | 0.00 | 27 | 1026.8 |
| 20260508234239 | 67 | 324 | 1.7 | 7.8 | 0.00 | 0.00 | 0.00 | 28 | 1026.8 |
| 20260508233734 | 67 | 264 | 1.7 | 8.7 | 0.00 | 0.00 | 0.00 | 26 | 1026.7 |
| 20260508233234 | 67 | 282 | 2.6 | 8.7 | 0.00 | 0.00 | 0.00 | 26 | 1026.7 |
| 20260508232957 | 67 | 279 | 1.7 | 13.0 | 0.00 | 0.00 | 0.00 | 26 | 1026.6 |
| 20260508232453 | 67 | 265 | 3.5 | 13.0 | 0.00 | 0.00 | 0.00 | 26 | 1026.6 |
| 20260508231735 | 67 | 293 | 3.5 | 11.3 | 0.00 | 0.00 | 0.00 | 26 | 1026.6 |
| 20260508231233 | 68 | 258 | 3.5 | 11.3 | 0.00 | 0.00 | 0.00 | 25 | 1026.5 |
| 20260508230735 | 68 | 286 | 3.5 | 11.3 | 0.00 | 0.00 | 0.00 | 25 | 1026.5 |
| 20260508230234 | 68 | 282 | 3.5 | 12.2 | 0.00 | 0.00 | 0.00 | 25 | 1026.4 |
| 20260508225959 | 68 | 313 | 6.1 | 13.9 | 0.00 | 0.00 | 0.00 | 25 | 1026.2 |
| 20260508225233 | 69 | 336 | 4.3 | 13.9 | 0.00 | 0.00 | 0.00 | 25 | 1026.2 |
| 20260508224953 | 69 | 271 | 4.3 | 13.9 | 0.00 | 0.00 | 0.00 | 25 | 1026.2 |
| 20260508224234 | 69 | 293 | 4.3 | 10.4 | 0.00 | 0.00 | 0.00 | 25 | 1026.2 |
| 20260508223959 | 69 | 296 | 2.6 | 9.6 | 0.00 | 0.00 | 0.00 | 25 | 1026.0 |
| 20260508223234 | 69 | 323 | 2.6 | 12.2 | 0.00 | 0.00 | 0.00 | 25 | 1026.1 |
| 20260508222733 | 69 | 238 | 3.5 | 12.2 | 0.00 | 0.00 | 0.00 | 25 | 1025.7 |
| 20260508222716 | 69 | 295 | 4.3 | 12.2 | 0.00 | 0.00 | 0.00 | 24 | 1025.8 |
| 20260508221733 | 70 | 309 | 3.5 | 13.0 | 0.00 | 0.00 | 0.00 | 24 | 1025.7 |
| 20260508221456 | 69 | 258 | 4.3 | 13.0 | 0.00 | 0.00 | 0.00 | 25 | 1025.7 |
| 20260508220733 | 69 | 39 | 4.3 | 16.5 | 0.00 | 0.00 | 0.00 | 24 | 1025.6 |
| 20260508220232 | 70 | 275 | 4.3 | 16.5 | 0.00 | 0.00 | 0.00 | 24 | 1025.7 |
| 20260508215734 | 71 | 254 | 4.3 | 11.3 | 0.00 | 0.00 | 0.00 | 24 | 1025.8 |
| 20260508215232 | 71 | 255 | 2.6 | 12.2 | 0.00 | 0.00 | 0.00 | 24 | 1025.5 |
| 20260508214738 | 71 | 269 | 3.5 | 12.2 | 0.00 | 0.00 | 0.00 | 24 | 1025.5 |
| 20260508214232 | 70 | 264 | 3.5 | 17.4 | 0.00 | 0.00 | 0.00 | 24 | 1025.5 |
| 20260508213733 | 70 | 262 | 7.0 | 17.4 | 0.00 | 0.00 | 0.00 | 23 | 1025.4 |
| 20260508213237 | 70 | 268 | 3.5 | 11.3 | 0.00 | 0.00 | 0.00 | 24 | 1025.7 |
| 20260508212732 | 70 | 319 | 3.5 | 12.2 | 0.00 | 0.00 | 0.00 | 25 | 1025.6 |
| 20260508212232 | 69 | 290 | 6.1 | 12.2 | 0.00 | 0.00 | 0.00 | 23 | 1025.6 |
| 20260508211731 | 69 | 288 | 3.5 | 7.8 | 0.00 | 0.00 | 0.00 | 24 | 1025.5 |
| 20260508211232 | 69 | 293 | 1.7 | 12.2 | 0.00 | 0.00 | 0.00 | 25 | 1025.4 |
| 20260508210732 | 69 | 272 | 5.2 | 12.2 | 0.00 | 0.00 | 0.00 | 25 | 1025.4 |
| 20260508210232 | 69 | 295 | 1.7 | 17.4 | 0.00 | 0.00 | 0.00 | 25 | 1025.2 |
| 20260508205731 | 68 | 272 | 1.7 | 17.4 | 0.00 | 0.00 | 0.00 | 24 | 1025.3 |
| 20260508205230 | 68 | 269 | 6.1 | 13.9 | 0.00 | 0.00 | 0.00 | 24 | 1025.2 |
| 20260508204731 | 68 | 255 | 4.3 | 10.4 | 0.00 | 0.00 | 0.00 | 23 | 1025.1 |
| 20260508204455 | 69 | 314 | 5.2 | 11.3 | 0.00 | 0.00 | 0.00 | 23 | 1025.0 |
| 20260508203731 | 69 | 248 | 4.3 | 12.2 | 0.00 | 0.00 | 0.00 | 23 | 1024.9 |
| 20260508203720 | 69 | 243 | 3.5 | 12.2 | 0.00 | 0.00 | 0.00 | 23 | 1024.9 |
| 20260508202731 | 69 | 319 | 3.5 | 12.2 | 0.00 | 0.00 | 0.00 | 22 | 1024.8 |
| 20260508202230 | 69 | 286 | 3.5 | 11.3 | 0.00 | 0.00 | 0.00 | 21 | 1024.8 |
| 20260508201731 | 69 | 290 | 4.3 | 11.3 | 0.00 | 0.00 | 0.00 | 22 | 1024.8 |
| 20260508201229 | 69 | 224 | 1.7 | 10.4 | 0.00 | 0.00 | 0.00 | 24 | 1024.6 |
| 20260508200730 | 70 | 293 | 4.3 | 10.4 | 0.00 | 0.00 | 0.00 | 22 | 1024.7 |
| 20260508200230 | 70 | 278 | 2.6 | 11.3 | 0.00 | 0.00 | 0.00 | 22 | 1024.6 |
| 20260508195950 | 70 | 276 | 1.7 | 11.3 | 0.00 | 0.00 | 0.00 | 23 | 1024.6 |
| 20260508195230 | 70 | 257 | 4.3 | 8.7 | 0.00 | 0.00 | 0.00 | 23 | 1024.6 |
| 20260508194728 | 71 | 264 | 2.6 | 8.7 | 0.00 | 0.00 | 0.00 | 23 | 1024.5 |
| 20260508194230 | 71 | 223 | 2.6 | 8.7 | 0.00 | 0.00 | 0.00 | 23 | 1024.2 |
| 20260508193729 | 71 | 283 | 2.6 | 5.2 | 0.00 | 0.00 | 0.00 | 22 | 1024.5 |
| 20260508193231 | 71 | 265 | 1.7 | 7.8 | 0.00 | 0.00 | 0.00 | 25 | 1024.5 |
| 20260508192728 | 72 | 285 | 2.6 | 10.4 | 0.00 | 0.00 | 0.00 | 24 | 1024.4 |
| 20260508192228 | 72 | 281 | 2.6 | 10.4 | 0.00 | 0.00 | 0.00 | 23 | 1024.4 |
| 20260508191728 | 71 | 312 | 3.5 | 8.7 | 0.00 | 0.00 | 0.00 | 24 | 1024.5 |
| 20260508191228 | 70 | 319 | 1.7 | 8.7 | 0.00 | 0.00 | 0.00 | 25 | 1024.6 |
| 20260508190729 | 69 | 90 | 1.7 | 11.3 | 0.00 | 0.00 | 0.00 | 27 | 1024.7 |
| 20260508190228 | 69 | 266 | 6.1 | 11.3 | 0.00 | 0.00 | 0.00 | 26 | 1024.7 |
| 20260508185730 | 69 | 238 | 1.7 | 10.4 | 0.00 | 0.00 | 0.00 | 27 | 1024.6 |
| 20260508185228 | 69 | 247 | 1.7 | 13.0 | 0.00 | 0.00 | 0.00 | 26 | 1024.6 |
| 20260508184729 | 69 | 276 | 3.5 | 13.0 | 0.00 | 0.00 | 0.00 | 25 | 1024.6 |
| 20260508184448 | 70 | 282 | 2.6 | 13.0 | 0.00 | 0.00 | 0.00 | 26 | 1024.6 |
| 20260508183728 | 70 | 279 | 7.0 | 13.0 | 0.00 | 0.00 | 0.00 | 26 | 1024.6 |
| 20260508183228 | 71 | 264 | 3.5 | 13.9 | 0.00 | 0.00 | 0.00 | 27 | 1024.6 |
| 20260508182727 | 70 | 233 | 5.2 | 13.9 | 0.00 | 0.00 | 0.00 | 26 | 1024.7 |
| 20260508182228 | 69 | 274 | 3.5 | 9.6 | 0.00 | 0.00 | 0.00 | 27 | 1024.6 |
| 20260508181948 | 69 | 272 | 2.6 | 11.3 | 0.00 | 0.00 | 0.00 | 27 | 1024.5 |
| 20260508181229 | 69 | 295 | 2.6 | 11.3 | 0.00 | 0.00 | 0.00 | 29 | 1024.5 |
| 20260508180727 | 69 | 282 | 4.3 | 9.6 | 0.00 | 0.00 | 0.00 | 25 | 1024.6 |
| 20260508180227 | 69 | 317 | 4.3 | 9.6 | 0.00 | 0.00 | 0.00 | 27 | 1024.5 |
| 20260508175727 | 69 | 14 | 1.7 | 8.7 | 0.00 | 0.00 | 0.00 | 30 | 1024.5 |
| 20260508175227 | 68 | 292 | 3.5 | 8.7 | 0.00 | 0.00 | 0.00 | 28 | 1024.6 |
| 20260508174727 | 68 | 282 | 3.5 | 8.7 | 0.00 | 0.00 | 0.00 | 30 | 1024.6 |
| 20260508174227 | 67 | 302 | 0.9 | 8.7 | 0.00 | 0.00 | 0.00 | 33 | 1024.6 |
| 20260508173727 | 66 | 254 | 3.5 | 8.7 | 0.00 | 0.00 | 0.00 | 31 | 1024.6 |
| 20260508173226 | 65 | 289 | 1.7 | 9.6 | 0.00 | 0.00 | 0.00 | 34 | 1024.6 |
| 20260508172728 | 65 | 292 | 1.7 | 9.6 | 0.00 | 0.00 | 0.00 | 34 | 1024.6 |
| 20260508172226 | 65 | 347 | 1.7 | 5.2 | 0.00 | 0.00 | 0.00 | 40 | 1024.5 |
| 20260508171725 | 65 | 269 | 1.7 | 4.3 | 0.00 | 0.00 | 0.00 | 40 | 1024.6 |
| 20260508171225 | 65 | 3 | 0.9 | 2.6 | 0.00 | 0.00 | 0.00 | 44 | 1024.7 |
| 20260508170724 | 65 | 275 | 0.0 | 2.6 | 0.00 | 0.00 | 0.00 | 44 | 1024.8 |
| 20260508170226 | 64 | 68 | 1.7 | 2.6 | 0.00 | 0.00 | 0.00 | 46 | 1024.8 |
| 20260508165944 | 64 | 138 | 0.9 | 2.6 | 0.00 | 0.00 | 0.00 | 44 | 1024.7 |
| 20260508165227 | 63 | 338 | 0.0 | 2.6 | 0.00 | 0.00 | 0.00 | 51 | 1024.7 |
| 20260508164725 | 62 | 125 | 0.9 | 2.6 | 0.00 | 0.00 | 0.00 | 50 | 1024.8 |
| 20260508164226 | 62 | 42 | 0.9 | 3.5 | 0.00 | 0.00 | 0.00 | 53 | 1024.8 |
| 20260508163725 | 61 | 116 | 0.9 | 3.5 | 0.00 | 0.00 | 0.00 | 54 | 1024.7 |
| 20260508163224 | 60 | 117 | 0.9 | 2.6 | 0.00 | 0.00 | 0.00 | 58 | 1024.7 |
| 20260508162722 | 60 | 113 | 0.9 | 3.5 | 0.00 | 0.00 | 0.00 | 58 | 1024.7 |
| 20260508162224 | 60 | 83 | 0.9 | 3.5 | 0.00 | 0.00 | 0.00 | 58 | 1024.8 |
| 20260508161726 | 59 | 121 | 0.9 | 2.6 | 0.00 | 0.00 | 0.00 | 57 | 1024.8 |
| 20260508161224 | 59 | 75 | 1.7 | 2.6 | 0.00 | 0.00 | 0.00 | 57 | 1024.8 |
| 20260508160725 | 59 | 133 | 0.9 | 2.6 | 0.00 | 0.00 | 0.00 | 59 | 1024.9 |
| 20260508160224 | 58 | 109 | 0.9 | 2.6 | 0.00 | 0.00 | 0.00 | 62 | 1024.9 |
| 20260508155724 | 58 | 38 | 0.0 | 0.9 | 0.00 | 0.00 | 0.00 | 64 | 1025.0 |
| 20260508155224 | 57 | 116 | 0.0 | 0.9 | 0.00 | 0.00 | 0.00 | 65 | 1025.0 |
| 20260508154948 | 56 | 72 | 0.0 | 0.9 | 0.00 | 0.00 | 0.00 | 68 | 1025.0 |
| 20260508154222 | 56 | 72 | 0.0 | 0.9 | 0.00 | 0.00 | 0.00 | 69 | 1025.0 |
| 20260508153723 | 56 | 72 | 0.0 | 0.9 | 0.00 | 0.00 | 0.00 | 71 | 1025.0 |
| 20260508153225 | 55 | 14 | 0.0 | 0.9 | 0.00 | 0.00 | 0.00 | 71 | 1025.0 |
| 20260508152723 | 55 | 331 | 0.0 | 0.9 | 0.00 | 0.00 | 0.00 | 71 | 1025.0 |
| 20260508152224 | 55 | 343 | 0.0 | 0.0 | 0.00 | 0.00 | 0.00 | 71 | 1025.0 |
| 20260508151723 | 55 | 51 | 0.0 | 0.0 | 0.00 | 0.00 | 0.00 | 71 | 1025.1 |
| 20260508151223 | 54 | 51 | 0.0 | 0.0 | 0.00 | 0.00 | 0.00 | 72 | 1025.0 |
| 20260508150722 | 53 | 52 | 0.0 | 1.7 | 0.00 | 0.00 | 0.00 | 72 | 1024.9 |
| 20260508150219 | 53 | 39 | 0.0 | 1.7 | 0.00 | 0.00 | 0.00 | 73 | 1025.0 |
| 20260508145945 | 53 | 41 | 0.0 | 0.0 | 0.00 | 0.00 | 0.00 | 74 | 1024.9 |
| 20260508145223 | 52 | 276 | 0.0 | 0.0 | 0.00 | 0.00 | 0.00 | 73 | 1025.0 |
| 20260508144724 | 52 | 276 | 0.0 | 0.0 | 0.00 | 0.00 | 0.00 | 74 | 1025.1 |
| 20260508144702 | 52 | 276 | 0.0 | 0.0 | 0.00 | 0.00 | 0.00 | 74 | 1025.0 |
| 20260508143723 | 51 | 276 | 0.0 | 0.0 | 0.00 | 0.00 | 0.00 | 75 | 1025.0 |
| 20260508143651 | 49 | 289 | 0.0 | 0.0 | 0.00 | 0.00 | 0.00 | 77 | 1025.0 |
| 20260508143314 | 51 | 276 | 0.0 | 0.0 | 0.00 | 0.00 | 0.00 | 77 | 1025.0 |
| 20260508142821 | 50 | 276 | 0.0 | 0.0 | 0.00 | 0.00 | 0.00 | 76 | 1024.9 |
| 20260508141724 | 49 | 289 | 0.0 | 0.0 | 0.00 | 0.00 | 0.00 | 80 | 1025.0 |
| 20260508141219 | 49 | 289 | 0.0 | 0.0 | 0.00 | 0.00 | 0.00 | 81 | 1025.0 |
| 20260508140948 | 49 | 289 | 0.0 | 0.0 | 0.00 | 0.00 | 0.00 | 81 | 1025.0 |
| 20260508140223 | 49 | 275 | 0.0 | 0.0 | 0.00 | 0.00 | 0.00 | 81 | 1024.9 |
| 20260508135941 | 49 | 141 | 0.0 | 0.0 | 0.00 | 0.00 | 0.00 | 81 | 1024.9 |
| 20260508135444 | 49 | 141 | 0.0 | 0.0 | 0.00 | 0.00 | 0.00 | 81 | 1024.9 |
| 20260508134948 | 48 | 141 | 0.0 | 0.0 | 0.00 | 0.00 | 0.00 | 80 | 1025.0 |
| 20260508134221 | 48 | 141 | 0.0 | 0.0 | 0.00 | 0.00 | 0.00 | 81 | 1025.1 |
| 20260508133718 | 47 | 141 | 0.0 | 0.0 | 0.00 | 0.00 | 0.00 | 83 | 1024.9 |
| 20260508133217 | 46 | 154 | 0.0 | 0.0 | 0.00 | 0.00 | 0.00 | 83 | 1025.0 |
| 20260508132719 | 46 | 154 | 0.0 | 0.0 | 0.00 | 0.00 | 0.00 | 83 | 1025.0 |
| 20260508132221 | 46 | 155 | 0.0 | 0.0 | 0.00 | 0.00 | 0.00 | 83 | 1025.1 |
| 20260508132212 | 45 | 155 | 0.0 | 0.0 | 0.00 | 0.00 | 0.00 | 84 | 1025.1 |
| 20260508131221 | 45 | 155 | 0.0 | 0.0 | 0.00 | 0.00 | 0.00 | 84 | 1025.1 |